Wind_Gust
6 7 7 6 3 2 4 5 6 9 4 9 7 6 16 5 12 9 3 6 24 9 15 17 17 10 22 24 24 16 14 8 6 12 12 16 11 17 17 19 16 14 13 10 8 7 10 12 12 12 12 14 15 16 16 18 19 16 15 16 16 17 17 16 18 19 15 14 15 15 15 17 15 15 14 14 13 13 14 16 17 17 17 19 19 19 20 21 20 19 20 20 20 18 18 20 22
4 6 7 7 5 2 5 5 7 3 4 8 17 4 12 4 3 11 9 6 14 18 13 28 31 35 31 26 23 25 23 16 8 16 16 14 14 18 16 18 16 16 11 8 7 8 9 11 12 11 11 13 14 14 16 16 18 18 16 15 15 16 16 15 15 18 17 16 16 15 15 16 16 13 12 13 12 12 12 13 15 17 16 17 18 18 19 20 20 19 19 20 19 17 17 18 19
4 8 9 8 4 4 4 3 5 4 5 9 13 11 8 15 7 7 11 20 18 16 20 20 22 17 18 15 22 14 5 8 20 19 21 20 21 16 16 15 14 13 12 8 8 8 9 11 12 11 10 11 13 14 14 14 15 17 17 15 15 15 15 14 14 15 16 16 17 16 15 15 16 15 14 13 12 12 11 12 13 15 15 15 16 16 17 19 19 19 18 19 18 17 16 16 17
4 2 2 5 5 5 4 4 5 9 7 11 12 9 9 5 10 13 11 13 10 12 16 13 20 10 24 28 25 23 17 14 14 18 29 22 15 21 18 16 13 11 8 8 8 7 7 13 14 12 10 11 11 11 12 13 13 15 16 16 16 16 15 14 14 14 16 16 16 16 15 15 16 14 14 14 15 14 12 11 11 13 13 14 15 16 16 17 18 18 19 19 18 16 15 15 14
5 1 4 3 7 4 5 8 7 9 12 11 8 13 7 4 11 11 12 13 15 22 23 22 30 13 20 20 6 15 14 15 13 8 20 12 15 17 17 16 13 11 9 8 9 8 8 16 13 11 11 11 10 10 11 13 13 12 13 15 16 17 15 16 16 14 16 16 15 16 16 15 15 16 15 14 15 15 12 11 11 11 11 11 11 12 13 13 18 19 18 18 17 15 13 13 13
4 3 3 5 6 6 6 5 8 9 13 7 5 8 8 10 4 7 12 12 13 16 16 16 25 17 25 13 12 20 20 19 15 13 19 16 18 18 17 15 13 11 8 9 9 7 8 12 12 12 11 11 10 10 11 12 13 12 11 11 12 14 15 15 16 16 16 16 15 16 16 16 15 14 16 16 14 14 14 13 13 13 12 12 11 11 12 15 18 15 14 16 17 14 11 11 12
7 8 5 2 7 4 8 5 9 7 19 8 9 11 12 18 7 18 22 20 14 18 24 29 25 23 26 19 23 17 17 17 15 19 14 20 19 18 17 15 13 11 10 10 8 9 9 11 11 11 11 12 11 11 12 12 13 12 11 9 10 12 14 14 14 14 15 15 15 16 16 16 15 14 13 16 15 14 16 15 14 13 12 12 11 12 14 18 18 16 12 14 15 14 9 8 10
2 5 4 4 7 4 5 6 10 7 14 11 8 13 11 16 7 14 14 25 16 24 10 14 16 33 13 6 20 9 11 10 19 19 22 22 21 19 18 16 15 13 11 9 8 9 15 11 11 11 11 11 13 13 14 13 14 13 12 10 10 11 14 15 14 13 14 14 15 16 16 16 15 14 14 14 15 14 15 15 14 14 14 13 12 13 16 17 18 19 17 13 13 14 8 7 9
3 4 4 4 3 6 5 9 12 8 14 12 14 18 14 20 13 13 10 15 17 16 18 22 27 30 12 18 19 11 21 19 20 21 21 22 20 19 19 16 17 16 12 10 8 8 9 12 10 11 12 12 12 14 13 13 13 13 12 11 9 10 12 13 14 14 14 13 13 15 16 15 15 14 13 12 14 13 14 15 15 15 14 13 12 14 16 16 18 18 17 16 13 13 9 6 7
3 6 4 8 7 5 5 13 5 13 12 13 16 16 10 12 15 8 20 16 20 18 10 8 23 28 20 24 21 13 21 19 21 21 19 18 18 15 15 14 15 18 14 11 9 9 10 16 11 11 12 14 13 12 11 11 12 13 12 11 10 13 12 12 13 13 14 13 13 13 14 14 14 14 13 14 14 13 14 15 15 15 14 14 12 13 14 15 16 16 13 13 13 11 9 7 6
8 4 5 3 3 5 7 14 11 13 10 11 11 15 20 16 9 10 22 23 21 23 14 29 32 25 21 14 15 11 19 23 23 21 18 18 18 16 14 13 14 14 16 11 8 7 10 10 18 12 12 13 13 13 12 11 12 11 11 11 10 10 16 13 13 12 13 13 14 13 14 14 14 14 13 13 15 14 14 15 15 16 15 15 14 13 13 14 17 16 14 12 10 7 5 6 5
4 3 4 4 7 8 10 8 11 13 13 9 15 18 14 21 9 24 24 25 20 25 24 21 24 29 20 21 17 15 18 19 20 18 17 17 17 15 15 14 14 14 12 12 10 9 7 9 9 16 14 13 12 13 12 12 12 12 12 11 11 10 11 12 13 13 14 14 14 14 13 14 14 14 13 13 13 15 15 15 16 16 16 16 15 13 13 14 16 16 14 11 10 6 4 6 6
7 2 2 4 9 2 8 7 13 10 13 13 15 15 9 11 17 24 21 24 21 21 11 17 27 21 21 16 16 16 19 16 19 20 18 16 15 14 13 14 14 14 13 12 11 10 10 8 10 9 13 16 13 11 11 11 12 12 12 11 11 11 11 12 13 13 14 14 14 14 14 14 14 14 14 14 15 15 16 16 15 16 16 16 15 13 13 15 16 17 16 13 11 7 4 5 5
10 11 6 8 4 6 9 11 7 8 16 18 12 14 7 5 5 17 23 22 16 16 14 28 25 24 23 24 16 15 17 17 20 18 17 15 14 15 14 13 13 13 13 13 12 11 9 9 10 9 10 9 8 10 11 11 10 11 11 11 11 11 11 12 12 13 14 14 14 14 14 14 14 14 14 14 15 16 17 16 16 16 15 16 16 14 14 15 15 16 15 13 11 8 5 3 6
12 5 5 6 11 6 6 10 8 8 19 14 14 3 8 9 17 12 23 22 13 19 21 10 35 29 28 26 15 19 20 19 18 16 15 13 14 13 14 13 12 11 11 12 13 13 12 11 10 10 10 9 8 7 5 10 11 10 10 11 11 11 11 12 11 12 13 13 14 14 14 14 14 15 14 14 14 16 17 17 16 16 14 16 16 15 14 14 15 15 14 12 9 8 6 3 3
10 6 5 5 9 3 15 7 8 9 21 5 5 13 21 7 13 19 11 26 21 9 9 19 7 11 27 22 29 24 23 20 15 16 17 14 12 11 13 11 11 11 11 11 10 9 11 10 9 9 10 10 8 7 7 5 10 10 10 10 11 11 10 10 12 11 12 11 13 13 13 12 12 13 16 14 15 15 16 14 16 16 14 15 15 15 14 14 15 16 14 11 9 7 6 3 2
3 6 7 7 11 5 8 5 5 14 14 10 8 7 16 16 13 18 8 21 26 8 7 8 5 20 26 20 24 27 22 19 18 18 16 13 13 10 8 8 9 6 8 7 8 9 9 10 9 9 8 10 9 8 6 5 7 9 8 10 10 11 10 12 14 13 10 11 10 10 8 8 6 7 11 9 13 12 12 16 17 17 14 14 15 14 14 14 14 14 14 13 10 8 5 4 4
3 7 10 6 12 14 7 8 9 12 21 13 9 6 18 15 15 19 24 21 19 16 19 19 19 15 20 20 25 26 24 24 21 21 16 15 12 12 11 10 10 10 10 8 7 11 10 9 10 10 8 9 9 10 8 7 5 6 5 5 6 8 8 9 10 8 9 4 7 7 6 7 7 7 7 10 7 9 11 14 16 17 14 14 13 12 12 12 13 14 12 11 11 9 6 2 4
7 6 7 14 11 12 5 4 13 11 17 10 4 3 9 16 13 9 23 14 20 23 17 25 25 21 19 20 22 24 23 22 21 20 19 16 15 15 15 10 7 7 7 7 9 10 11 10 9 10 10 9 10 9 9 8 7 5 5 5 6 7 10 10 6 6 5 6 6 6 6 7 7 6 9 9 9 11 11 13 15 16 15 14 12 11 11 10 11 11 11 10 10 11 7 3 3
8 8 9 15 10 8 4 7 13 8 12 9 4 5 9 6 12 9 21 18 26 26 25 21 28 25 22 20 21 23 23 20 20 20 19 17 14 16 12 11 10 9 10 12 12 6 7 9 10 12 12 11 12 11 10 8 7 6 6 5 6 5 6 7 5 5 6 6 8 6 7 8 7 7 12 16 13 8 9 11 14 16 16 14 13 10 11 10 12 11 12 10 8 6 7 4 2
7 7 12 14 3 8 6 6 5 10 12 9 5 6 8 3 8 15 20 17 15 21 29 31 28 28 26 23 22 20 19 16 15 17 16 14 12 12 14 14 15 13 10 9 9 8 8 8 8 9 10 9 9 9 8 9 7 7 5 6 6 6 5 5 4 3 5 7 9 7 6 7 7 6 7 6 7 7 7 9 11 10 8 9 9 6 8 9 9 6 7 8 5 6 5 6 3
5 11 13 14 8 10 16 14 11 5 6 9 9 8 4 2 9 19 17 21 18 25 21 32 34 31 30 24 19 18 16 16 14 14 14 14 14 11 8 6 5 9 7 14 9 6 5 7 9 8 7 7 8 10 9 9 10 9 7 7 6 5 6 5 5 7 7 8 8 10 9 8 8 7 6 6 7 7 8 8 8 9 8 9 9 8 7 7 8 7 6 6 7 7 7 7 6
14 13 10 13 11 13 6 5 6 4 7 8 9 6 3 4 5 5 10 14 16 14 21 32 33 35 30 26 23 18 18 18 16 16 15 13 11 10 10 10 13 12 13 12 12 9 9 9 9 8 8 7 7 7 7 7 7 6 7 7 9 6 6 7 7 7 8 7 7 8 10 9 9 8 7 6 8 9 9 8 9 9 9 9 8 9 7 7 9 8 7 5 4 4 6 6 8
16 24 12 13 9 16 6 5 5 3 12 3 4 8 9 5 8 4 11 5 10 15 21 21 24 20 24 25 17 19 19 20 16 15 15 15 14 13 13 12 9 8 14 11 11 10 11 9 8 9 6 8 8 9 9 8 6 7 7 9 7 8 8 7 7 8 7 7 6 7 7 8 9 10 8 7 7 6 10 8 8 10 9 9 7 8 8 7 7 8 8 6 7 7 6 6 8
18 23 14 15 10 9 8 11 3 2 3 3 7 7 6 5 4 5 6 14 24 24 22 22 21 19 16 16 15 13 15 14 14 12 9 10 11 11 8 10 9 13 13 9 8 10 7 8 10 11 8 8 9 9 8 7 7 7 7 8 7 9 7 6 7 7 7 5 5 6 8 9 7 8 9 7 5 6 8 9 9 8 8 10 9 8 7 9 8 8 8 7 8 9 9 8 7
18 22 14 7 4 9 7 4 3 2 3 5 6 4 9 2 8 12 4 8 27 27 26 23 19 19 18 16 15 15 17 17 15 14 14 11 13 15 9 11 12 13 10 9 10 7 7 9 11 10 8 11 10 9 8 8 6 8 6 7 8 11 8 8 6 7 5 6 6 4 5 6 7 8 9 8 8 6 6 6 8 7 7 7 8 8 7 7 8 8 8 9 9 8 8 11 11
11 18 17 10 4 8 4 8 3 5 3 5 3 2 6 8 7 4 6 11 23 27 26 24 24 23 21 18 16 17 22 20 20 16 14 12 13 17 11 11 13 10 11 11 10 8 7 10 9 9 9 7 8 10 7 7 7 8 7 5 6 8 8 9 7 6 4 4 3 3 4 5 6 7 9 9 7 8 7 7 7 5 5 8 7 6 4 4 7 7 6 5 7 10 11 11 13
14 13 10 3 3 3 7 6 5 3 3 4 6 3 5 7 4 16 11 18 23 25 23 22 22 21 21 19 17 14 19 16 17 20 22 18 18 17 13 16 12 9 14 10 9 7 11 9 9 8 8 7 8 8 8 9 8 8 6 7 7 7 8 7 7 8 8 5 5 4 3 5 6 6 9 9 8 8 9 8 9 9 8 8 8 6 4 4 3 4 5 5 5 5 8 9 12
11 7 3 4 6 5 2 7 5 7 4 4 3 3 6 6 4 10 13 15 22 25 20 21 19 19 19 17 12 15 19 17 17 19 19 18 15 16 16 11 16 13 8 13 11 10 9 8 11 6 8 7 10 9 10 9 9 8 7 6 6 6 8 8 7 7 8 6 4 6 5 4 7 9 8 9 8 8 8 9 8 9 10 10 9 9 6 3 3 3 3 2 4 4 10 10 12
4 4 3 7 8 9 9 4 5 7 6 7 9 7 11 13 13 12 3 8 16 20 19 18 15 16 16 13 14 14 15 16 16 19 18 17 16 15 18 9 14 17 14 10 11 10 7 7 8 7 8 9 8 9 9 9 6 6 5 5 4 6 6 9 9 8 7 8 8 6 8 7 5 5 6 6 7 7 5 6 9 8 7 7 7 9 8 6 4 4 5 1 6 2 8 10 11
8 4 9 4 6 13 7 9 5 9 6 12 9 11 14 13 13 13 5 12 16 18 21 16 17 16 16 13 18 21 20 21 20 18 16 16 14 15 17 11 14 14 14 11 13 10 8 9 8 8 7 8 9 10 10 8 5 7 7 5 4 5 6 6 9 6 7 6 6 8 7 9 8 6 4 6 6 5 6 6 8 8 8 8 10 12 12 9 8 7 7 5 7 5 7 8 10
5 4 9 8 4 14 13 5 9 17 6 10 12 8 17 9 12 12 7 12 14 19 14 18 17 18 17 15 17 19 18 15 18 18 17 18 17 17 19 15 15 15 16 14 12 11 11 7 8 8 6 8 8 9 7 8 7 6 6 7 9 6 7 4 2 5 6 6 5 4 5 8 8 6 4 5 6 4 6 3 2 4 6 8 7 6 9 11 9 7 5 5 11 8 5 8 8
11 4 6 6 4 14 14 6 13 15 10 4 19 16 4 5 9 10 7 16 16 15 13 19 18 19 17 16 16 16 15 11 15 17 17 19 17 20 19 18 17 17 16 16 15 12 11 9 9 9 8 8 8 8 7 6 7 6 6 7 7 7 9 6 6 8 7 6 3 4 3 2 3 6 7 6 6 4 2 4 3 2 3 5 5 6 4 3 10 11 10 10 10 10 5 5 6
10 6 10 7 5 7 14 13 9 7 18 13 10 13 9 5 7 8 6 20 24 17 13 18 18 15 15 16 17 18 19 19 20 19 19 19 20 19 19 20 18 17 16 17 16 18 16 12 11 9 7 7 9 10 8 8 7 6 6 5 8 12 10 10 10 11 7 6 3 4 5 7 6 5 6 6 7 7 3 5 6 3 6 7 2 2 5 6 6 5 8 8 8 7 9 5 7
4 5 4 10 3 5 13 15 8 14 13 17 8 11 7 8 10 6 12 8 9 13 14 18 20 15 13 15 18 19 20 21 22 21 22 19 18 18 20 19 18 17 16 16 16 15 14 12 11 8 8 7 7 7 5 4 6 6 5 7 9 8 9 9 11 10 7 4 4 5 6 7 7 6 5 4 8 7 7 4 4 5 9 8 4 4 1 1 4 7 8 7 6 8 7 6 6
5 6 4 3 3 9 12 13 10 27 16 13 10 19 12 8 5 8 5 9 14 9 9 11 19 21 17 17 18 19 19 22 19 19 21 20 21 22 20 18 18 17 16 16 17 17 16 13 11 10 10 9 6 5 5 5 7 6 8 5 7 5 6 9 7 9 5 7 5 5 5 6 6 7 6 5 4 7 7 6 7 8 7 10 7 7 5 3 4 4 7 7 5 7 8 9 8
4 2 3 2 2 8 9 7 10 7 9 4 10 9 9 10 8 8 9 5 4 11 12 11 15 19 19 18 19 22 21 25 19 22 22 22 24 23 19 17 17 15 15 17 16 14 17 19 15 14 13 9 9 8 7 7 6 6 5 7 7 4 8 6 7 5 7 5 6 6 5 6 6 5 4 5 5 4 3 1 3 3 7 10 8 9 8 9 6 4 3 4 7 10 10 8 9
4 3 4 8 3 4 9 7 7 10 8 3 5 4 6 8 6 9 7 2 7 8 9 9 10 15 20 22 22 23 25 14 14 12 14 14 16 15 16 17 17 20 16 17 19 18 16 15 16 16 12 11 11 11 9 8 7 11 13 11 8 7 8 7 5 3 6 6 6 7 6 6 7 5 4 3 2 3 2 2 3 3 3 3 4 3 3 4 6 8 7 8 8 10 11 3 5
4 2 1 5 9 5 7 8 9 7 11 4 2 7 7 9 9 5 7 8 9 11 13 14 14 14 16 18 20 20 13 13 15 18 14 15 16 15 18 18 19 22 20 20 18 15 14 15 14 13 13 14 12 10 9 7 4 7 11 9 11 7 2 4 6 4 5 6 4 6 6 6 5 5 3 2 2 4 4 4 5 4 4 3 2 3 1 2 4 5 9 11 10 10 11 7 6
4 6 5 7 7 5 8 10 6 10 7 3 2 5 11 10 7 9 11 13 9 9 10 11 9 16 18 18 22 24 17 17 20 20 19 18 21 21 17 17 19 16 19 15 15 18 16 16 12 13 13 12 11 9 10 7 8 7 7 12 5 7 7 5 6 4 5 6 6 4 5 6 5 5 5 4 5 3 3 4 3 6 7 4 2 3 3 4 2 4 6 10 9 14 12 12 15
3 2 3 6 5 5 7 6 4 7 6 3 4 10 13 7 10 12 13 7 4 7 11 11 9 8 13 12 8 15 19 21 24 22 20 19 19 20 23 22 18 19 19 20 19 20 19 18 16 14 13 12 11 11 10 11 12 10 10 8 7 9 9 7 5 5 4 5 5 5 6 6 6 4 3 5 5 4 3 3 6 6 7 6 7 7 5 5 4 4 4 4 8 10 11 13 12
7 6 7 9 8 7 6 2 2 8 7 6 2 14 13 9 9 11 16 8 6 7 10 18 18 8 6 9 14 12 16 24 29 26 26 25 25 21 18 17 18 19 21 21 21 20 17 16 14 12 10 10 13 12 13 13 14 16 13 12 9 7 7 6 6 9 7 8 7 2 2 4 5 4 2 3 4 4 4 3 6 8 7 9 8 7 6 8 8 6 4 5 5 7 9 7 15
2 13 7 8 8 7 4 2 5 4 10 9 4 6 22 12 9 8 11 6 13 9 10 18 15 12 10 16 18 18 16 13 16 22 23 24 24 24 22 23 23 22 22 19 17 16 16 16 15 14 13 12 13 13 11 13 11 12 13 14 12 14 14 8 4 5 9 6 5 5 5 3 4 4 2 2 3 3 5 6 6 6 6 6 6 8 9 6 7 7 5 3 5 4 4 9 9
10 8 3 4 4 6 7 5 9 12 6 6 3 10 13 17 14 11 7 6 12 13 11 14 14 14 15 13 15 14 14 17 22 23 28 30 28 28 27 25 23 25 21 16 16 15 17 17 16 15 12 13 12 14 11 13 14 10 9 8 9 10 12 11 8 7 6 6 7 5 5 2 1 4 3 2 2 4 6 5 5 5 6 4 5 6 4 6 8 8 5 4 4 3 5 8 8
13 5 7 7 5 5 3 7 6 5 2 14 12 3 11 14 18 9 2 6 9 13 14 16 17 15 17 17 16 16 16 19 24 25 27 28 28 27 26 25 23 19 18 20 21 20 17 16 16 13 13 13 12 13 13 10 13 12 12 11 9 7 9 10 7 6 9 6 6 2 3 3 2 1 2 2 2 5 5 6 5 5 5 4 5 7 4 4 5 6 8 11 8 7 5 6 6
9 6 1 3 2 4 5 2 3 7 8 12 10 4 13 17 15 12 5 4 14 16 16 18 17 19 20 21 17 16 14 10 12 23 26 27 27 27 27 27 22 22 21 19 17 15 15 15 16 16 14 14 14 13 14 11 10 12 11 9 11 9 8 7 7 9 9 6 7 4 4 4 4 3 3 4 5 5 4 5 5 5 3 3 5 6 6 7 7 6 5 4 4 5 4 4 6
5 5 6 5 10 9 5 8 6 10 7 15 9 4 8 20 16 14 8 12 10 9 12 13 11 18 21 20 18 17 14 14 14 17 22 28 30 31 25 25 24 19 16 16 15 16 16 17 18 18 18 15 15 16 14 14 11 12 13 11 13 13 10 12 9 7 8 6 8 6 4 5 3 4 3 2 4 4 5 5 4 2 4 6 7 7 7 7 8 8 8 7 7 6 7 7 6
5 9 8 6 11 14 9 8 9 6 12 18 6 7 8 7 20 12 13 10 9 13 17 16 11 13 18 14 16 18 17 16 15 15 18 20 19 16 18 20 19 18 15 16 15 16 16 18 19 18 15 16 16 17 16 16 14 13 11 12 14 15 15 14 14 13 11 11 9 10 7 4 5 5 4 3 2 2 5 5 5 6 7 7 7 7 8 8 8 8 9 10 10 8 7 7 6
9 9 12 10 10 12 11 9 10 8 18 13 4 7 5 12 23 21 15 18 22 9 11 12 14 18 18 13 16 20 19 16 14 13 16 17 22 23 20 20 18 17 22 21 21 20 20 18 19 20 19 17 19 17 17 16 14 14 14 14 13 15 15 15 14 13 11 12 12 9 7 9 7 7 6 7 4 4 5 5 5 5 4 3 4 6 6 7 9 9 10 9 10 11 10 9 9
10 9 8 9 6 6 9 10 9 11 14 10 7 3 14 14 18 10 13 14 13 12 15 11 13 17 17 20 19 17 16 17 17 16 19 22 24 24 26 25 25 25 24 27 24 22 21 21 20 22 23 21 18 17 17 15 15 15 14 15 15 15 14 14 14 14 13 12 13 12 11 12 11 11 7 8 9 6 5 5 5 4 4 4 4 4 4 4 5 6 5 7 8 9 10 8 8
13 8 14 14 15 14 12 10 13 15 17 9 3 6 13 3 12 7 9 12 11 9 16 7 4 4 9 13 9 10 10 11 17 19 22 25 26 25 26 27 28 28 28 27 24 23 22 21 22 22 20 17 18 20 16 17 16 13 13 13 14 13 15 14 14 14 14 12 11 12 10 9 11 9 10 8 7 7 7 5 4 5 4 4 4 5 7 6 4 5 5 5 6 6 9 11 9
6 6 13 12 10 12 12 16 10 9 6 9 8 14 11 12 9 13 12 13 13 7 14 17 11 15 12 7 8 10 14 16 16 17 19 21 24 25 25 25 27 27 27 26 24 23 22 24 23 23 24 22 21 19 19 19 16 14 11 12 13 13 12 12 11 10 12 13 13 13 11 10 9 9 7 8 7 8 7 6 5 5 5 4 3 2 2 5 7 8 6 5 7 6 8 9 11
8 4 7 15 8 12 8 8 3 6 7 18 8 11 14 16 12 11 14 18 15 13 14 13 12 16 19 20 20 17 15 7 6 13 16 14 12 17 24 26 25 23 23 25 26 26 27 25 23 22 20 19 20 21 21 18 16 13 13 12 11 11 13 13 15 12 13 11 12 11 12 10 8 9 8 7 8 5 6 6 5 4 4 3 1 1 2 2 2 3 5 6 6 7 8 8 8
11 6 13 7 6 7 13 16 10 9 12 21 3 8 11 6 21 12 18 16 17 16 13 14 14 19 19 15 17 15 16 14 12 10 11 16 22 25 23 22 23 25 27 27 27 25 26 27 25 25 21 21 19 20 18 17 18 16 14 13 13 14 14 13 12 13 12 11 9 9 9 9 9 9 10 7 8 7 6 7 6 4 2 2 2 1 1 0 1 2 3 4 5 5 7 7 8
4 11 9 10 14 11 13 8 8 8 13 17 9 5 9 8 15 11 9 11 10 11 11 17 18 18 17 15 16 14 13 17 18 13 9 7 9 14 19 21 23 25 27 28 30 26 22 20 23 26 27 26 24 22 20 19 20 19 18 18 16 13 11 12 11 11 11 12 11 11 11 11 8 8 10 9 8 7 6 5 5 5 4 4 4 4 3 1 1 3 3 4 5 5 7 8 8
6 6 11 5 10 12 13 21 11 13 11 5 14 3 16 10 7 4 4 3 8 8 14 14 14 13 15 14 18 17 14 11 15 12 3 7 9 16 18 19 21 21 18 18 21 22 22 23 22 22 22 21 18 19 19 19 19 18 16 14 13 14 13 13 12 12 13 13 13 12 11 8 10 9 9 9 9 7 6 6 5 6 5 4 3 1 2 2 3 4 5 4 5 3 5 7 8
18 19 14 15 11 7 8 6 9 12 13 12 12 13 15 12 11 9 7 3 7 7 10 8 9 11 11 12 13 14 14 17 15 11 14 7 3 8 9 10 15 18 21 20 19 23 25 21 21 21 23 21 22 21 20 21 19 18 18 18 17 14 14 13 11 11 13 12 11 11 11 10 9 9 9 8 7 7 7 6 6 6 5 5 4 5 4 4 4 6 6 5 4 4 5 6 6
6 7 11 8 13 16 9 20 8 7 12 15 11 24 20 16 7 11 7 5 6 6 11 10 10 10 11 10 11 13 18 15 16 19 13 12 13 3 4 6 10 8 6 9 16 13 11 15 19 20 19 21 23 21 22 21 20 20 20 19 16 13 14 12 12 12 12 12 11 11 10 9 9 8 8 7 6 6 5 5 5 5 5 4 5 6 6 4 5 5 5 3 3 4 5 6 6
Wind_Speed
3 4 4 4 1 0 2 2 0 2 1 4 2 1 5 1 4 3 1 3 2 3 2 9 5 2 7 8 13 11 9 4 3 4 4 2 6 10 9 13 10 8 8 6 5 4 6 8 9 10 10 12 13 13 13 15 15 13 13 12 13 13 13 12 14 14 12 12 12 11 11 10 10 11 12 11 11 11 12 13 14 14 14 15 15 15 16 16 14 14 15 14 14 13 14 15 17
2 4 4 3 1 1 1 1 2 1 2 4 6 1 6 1 1 5 6 4 2 5 7 16 17 20 20 18 13 12 13 9 1 5 5 6 9 9 11 12 11 10 7 5 4 4 5 6 9 9 9 11 12 12 11 13 15 14 14 13 12 13 12 11 11 13 12 12 13 12 11 10 10 10 10 10 10 10 10 11 12 13 13 13 14 14 15 16 15 13 14 14 13 12 13 14 15
2 5 5 4 2 1 1 1 0 1 2 5 5 5 4 4 4 1 6 11 9 8 10 12 13 10 10 4 12 6 1 4 11 9 7 10 12 8 11 10 9 9 8 4 4 4 4 6 9 9 9 10 11 12 11 10 12 14 13 12 13 12 12 11 11 10 11 12 13 13 12 11 11 10 10 11 10 10 10 10 11 13 13 12 13 13 14 15 15 13 13 13 13 12 12 12 13
3 1 1 2 1 2 1 1 2 5 3 5 5 5 3 3 4 10 7 9 7 5 2 3 7 4 10 16 11 15 8 5 5 9 9 9 5 12 11 10 8 6 5 4 4 3 3 8 10 9 9 9 10 10 10 10 10 12 12 13 13 13 12 11 12 10 11 12 13 13 11 11 12 11 9 11 12 12 10 9 9 11 11 11 12 13 13 14 13 13 12 12 13 12 11 11 11
3 0 2 1 2 0 1 2 3 4 5 4 2 7 4 2 6 7 6 7 5 8 11 7 9 5 11 11 2 3 6 8 6 3 6 6 9 10 11 10 8 7 5 4 4 4 4 12 10 9 9 9 9 9 10 11 11 10 10 12 13 13 12 12 13 11 10 12 12 12 12 11 10 12 11 10 12 13 10 9 10 9 10 9 9 10 11 11 15 13 11 11 12 11 10 10 10
2 2 0 2 0 1 1 1 3 4 6 3 0 4 6 7 1 5 7 6 4 8 9 8 9 5 6 4 3 6 12 7 6 6 8 8 11 11 12 9 8 6 5 5 4 4 4 10 10 9 9 9 9 9 10 10 11 10 8 7 9 12 11 11 11 13 11 11 12 12 12 12 11 10 10 11 11 11 12 11 11 11 10 10 9 9 10 12 13 10 9 10 10 10 8 9 9
1 3 1 1 2 1 3 2 5 3 8 5 2 6 8 12 2 12 11 10 8 10 14 13 16 13 10 3 9 4 5 9 6 7 7 11 12 11 11 9 8 7 6 5 4 4 6 9 9 9 9 10 9 9 10 10 11 10 8 7 8 10 11 11 11 11 11 11 12 13 13 12 12 11 10 10 11 11 13 13 12 11 10 9 9 10 11 14 13 10 7 9 8 8 7 7 8
1 1 1 1 1 1 1 3 5 2 6 7 5 8 8 11 4 5 9 15 5 8 4 8 7 16 7 5 7 2 6 4 11 11 14 13 13 11 11 9 8 7 7 5 4 4 9 9 9 9 9 9 11 10 11 11 12 10 9 8 8 9 12 12 11 11 10 11 12 12 13 12 12 11 10 10 10 11 12 12 11 12 11 10 10 11 13 14 14 13 9 8 7 8 5 6 8
1 1 1 1 1 0 1 4 5 2 6 5 8 10 9 13 8 7 6 5 7 7 9 12 16 15 3 11 8 5 9 12 13 14 13 15 13 13 9 10 10 9 8 5 4 4 5 9 9 9 10 10 10 11 11 11 11 10 10 8 8 8 7 10 11 11 11 11 11 12 13 12 12 11 10 9 10 11 11 12 12 12 12 11 10 12 13 13 14 14 11 10 7 8 5 4 6
0 1 0 2 2 2 2 6 1 6 5 5 7 10 6 6 9 5 13 8 10 10 4 1 12 15 13 15 9 5 8 13 14 12 12 12 12 10 9 9 10 12 8 6 5 5 5 11 9 9 10 11 11 10 10 9 10 10 10 9 9 11 9 6 10 10 11 11 10 10 11 11 11 11 11 11 11 11 11 11 12 12 12 12 10 10 12 12 13 12 9 7 6 7 6 4 5
2 0 1 0 1 2 3 7 6 7 6 5 6 10 14 9 4 5 14 14 12 10 7 17 15 15 12 7 5 4 12 15 15 13 11 11 11 10 9 8 8 8 8 7 5 4 5 6 12 10 10 11 11 11 10 10 10 9 10 9 8 9 14 10 10 10 11 11 11 11 11 11 12 11 11 11 12 12 11 11 12 13 12 13 11 10 11 12 13 12 9 7 5 4 5 4 4
1 0 1 1 3 4 5 3 5 7 9 5 6 11 5 13 6 11 15 15 9 15 12 11 6 15 11 9 6 8 12 12 13 12 11 11 10 10 9 7 8 8 8 7 6 5 4 5 5 10 11 11 10 10 10 10 10 10 10 9 9 9 10 10 11 11 11 11 11 11 11 11 11 11 11 11 11 12 12 12 13 13 13 13 12 11 11 12 13 13 10 7 5 4 4 4 5
1 0 1 1 3 1 3 3 5 5 6 6 9 5 6 6 10 17 12 15 13 13 4 10 17 11 8 7 5 9 13 11 11 12 11 9 9 8 8 8 9 9 8 7 7 6 7 4 5 4 8 13 11 9 9 9 10 10 10 10 9 9 9 10 11 11 11 12 12 12 11 12 12 12 12 12 12 12 13 13 12 13 13 13 12 11 11 12 13 13 11 9 6 4 3 4 4
3 4 3 3 0 1 3 5 4 4 7 9 5 9 2 1 3 11 14 14 11 8 6 18 12 14 13 9 6 7 9 12 13 11 9 10 8 8 9 8 9 8 8 8 7 7 6 6 5 5 6 5 5 8 9 8 8 9 9 9 9 9 9 10 10 10 11 11 11 11 12 11 11 11 12 12 12 13 14 13 13 13 12 12 13 12 11 12 12 13 11 10 7 4 2 3 5
4 1 1 1 4 2 3 2 5 4 9 8 6 2 4 5 11 5 15 13 4 7 10 4 14 15 9 13 5 9 10 13 12 11 10 8 9 8 9 8 7 7 7 8 8 8 7 6 6 5 5 5 5 4 3 6 9 8 9 9 9 9 9 10 9 10 10 11 11 12 11 11 11 12 11 11 12 13 14 14 13 13 12 13 13 12 12 12 12 12 11 9 7 5 2 1 3
4 1 1 1 3 0 5 2 3 3 9 3 3 9 12 4 4 10 1 14 6 4 5 5 3 2 15 13 17 15 15 13 10 11 11 10 7 6 7 6 6 5 5 5 5 4 6 6 5 5 5 5 4 4 4 3 8 8 8 9 10 9 8 8 10 9 10 9 10 11 10 8 9 9 13 9 12 12 13 10 13 13 11 12 12 12 12 12 12 12 11 8 7 5 3 1 1
1 1 2 0 5 3 3 2 2 5 8 5 6 4 7 7 8 7 3 11 16 4 2 1 0 10 17 5 16 18 15 12 12 12 11 8 7 5 5 5 5 3 3 4 4 5 5 6 5 5 4 5 5 4 3 3 4 7 6 8 9 9 9 10 12 11 8 8 7 7 7 5 3 4 7 6 10 7 10 13 13 13 12 10 11 12 11 11 11 11 11 10 8 6 3 2 2
1 1 2 3 6 6 3 3 2 4 8 8 4 2 12 10 6 5 13 13 10 8 9 7 11 7 9 10 16 17 15 15 14 14 10 9 6 6 5 4 5 5 5 4 3 6 6 5 6 5 4 5 4 4 3 3 3 4 3 3 4 5 6 7 7 5 6 2 5 4 4 4 4 4 4 6 4 6 8 11 13 14 12 11 10 10 10 10 11 11 10 8 8 7 5 2 1
3 1 2 7 5 5 3 1 6 4 10 7 1 2 5 9 7 2 10 8 11 12 6 14 13 12 12 13 15 16 15 14 14 14 13 11 8 9 8 5 4 4 4 4 5 6 6 5 5 5 5 4 5 4 3 3 3 3 3 3 3 5 6 5 3 4 3 3 4 3 4 4 4 4 5 5 5 9 7 11 12 13 12 11 10 9 9 8 9 9 9 8 7 8 5 2 1
3 3 4 8 2 2 1 4 5 5 4 7 1 1 5 4 3 1 8 11 17 14 10 11 16 15 14 13 15 15 15 13 13 13 13 11 9 10 7 7 6 5 6 7 7 4 4 5 6 6 6 6 6 5 4 3 3 3 3 3 3 3 4 4 3 3 4 3 4 4 4 4 4 5 8 12 9 5 6 9 12 13 13 12 11 8 9 8 10 9 10 9 6 3 2 3 1
2 2 4 4 1 4 3 4 3 7 7 6 4 2 5 2 3 6 12 10 7 12 18 20 19 18 17 16 15 13 13 11 11 12 11 10 8 7 8 8 9 7 5 4 5 5 5 5 5 6 6 5 6 5 4 4 4 4 3 3 3 3 3 3 2 2 3 3 5 4 4 3 4 4 4 4 4 4 4 5 6 6 5 6 8 4 5 5 6 4 4 5 3 3 2 2 2
1 5 7 7 5 5 9 10 9 4 4 6 6 6 0 1 5 11 11 11 9 12 12 22 23 21 20 16 13 11 11 11 10 10 10 10 10 7 5 4 4 5 4 7 4 3 3 4 5 5 5 5 5 5 5 5 6 4 4 3 3 2 3 3 3 2 4 5 5 6 5 5 4 4 3 4 4 4 4 4 4 5 5 5 5 5 4 4 5 5 4 4 3 3 3 3 3
4 6 6 6 6 6 2 2 4 0 2 4 4 4 2 2 3 2 5 8 8 7 15 22 22 24 21 17 14 12 12 12 11 11 10 9 7 7 6 6 8 7 7 7 6 4 5 4 4 4 5 4 4 4 4 4 4 4 4 4 5 3 4 4 4 4 5 5 4 5 6 5 5 4 4 3 4 5 5 5 5 5 5 5 4 5 4 4 5 5 4 3 3 2 3 4 4
6 9 7 9 5 10 5 3 5 0 7 2 1 1 5 3 5 2 3 3 7 10 10 11 16 14 16 16 12 13 13 14 11 10 10 10 10 9 8 7 6 6 9 7 6 6 6 5 4 4 4 5 4 5 5 5 4 4 4 4 4 4 4 4 4 4 3 4 4 4 4 4 5 5 4 3 4 3 6 5 5 6 5 5 4 5 5 4 4 5 5 4 4 4 3 4 4
6 9 9 10 7 6 6 7 3 1 2 0 5 4 2 2 2 1 3 5 12 14 12 11 12 13 11 11 10 9 10 8 9 7 5 6 7 7 5 6 5 8 8 6 5 6 4 4 6 5 5 6 5 5 5 4 4 4 4 4 4 4 4 4 4 3 4 3 2 3 5 5 4 4 5 4 2 3 4 5 5 5 5 5 5 5 4 5 5 4 5 4 5 5 5 5 4
7 13 8 5 2 5 5 3 2 2 1 3 3 2 3 2 6 6 0 3 15 17 16 14 13 13 12 11 10 10 11 11 10 9 9 7 8 10 6 7 7 8 7 6 6 4 4 5 7 6 5 7 6 6 5 5 4 5 3 4 4 4 4 4 4 4 3 4 3 2 3 4 4 4 4 4 4 4 4 4 4 4 5 4 5 4 4 4 5 5 5 5 5 5 5 6 5
3 9 11 7 3 5 3 5 1 3 1 3 2 1 3 5 4 1 0 6 14 17 16 15 15 14 13 11 10 11 14 13 14 10 9 7 8 10 7 7 8 7 7 7 6 5 4 6 6 6 5 4 5 6 4 4 4 5 4 3 4 4 4 4 4 4 3 3 2 2 3 3 3 4 5 5 4 4 4 4 4 3 3 4 4 4 2 2 4 5 4 3 4 4 6 6 6
9 8 7 2 2 1 2 3 4 1 0 3 4 1 3 3 2 9 5 7 15 15 14 13 14 14 13 13 10 9 12 10 10 13 15 12 10 10 8 9 7 6 9 6 6 4 6 6 6 5 5 5 5 5 5 5 4 4 4 5 4 3 3 4 4 4 3 2 2 2 2 3 3 3 5 5 5 4 4 4 4 4 4 4 4 4 3 2 2 2 3 4 3 3 4 5 6
8 1 1 1 3 0 1 4 3 3 1 2 3 2 3 3 2 7 9 10 15 17 14 15 13 13 12 11 8 9 11 10 10 11 12 11 10 9 10 7 10 8 5 8 7 6 6 5 6 4 5 5 6 6 6 5 4 4 4 4 4 3 3 3 5 4 4 3 2 2 2 2 4 5 5 5 4 4 4 4 4 5 5 4 4 5 4 2 2 1 1 0 1 0 2 3 6
2 2 1 3 4 3 4 3 1 3 2 5 5 2 5 6 8 5 3 5 10 14 12 11 8 8 9 8 9 9 7 10 10 11 11 10 10 9 12 6 9 10 8 6 7 7 4 4 4 4 5 6 6 6 6 5 4 4 3 3 2 4 3 4 3 4 3 4 4 3 2 2 3 3 4 3 3 3 3 4 5 4 4 4 5 5 4 3 3 1 3 0 2 1 3 4 5
2 2 4 1 2 3 2 3 3 4 1 7 5 5 7 8 8 8 3 8 9 12 13 10 10 10 8 7 10 12 12 12 13 12 10 11 9 9 11 7 9 10 8 7 9 7 5 5 4 4 4 5 6 6 6 5 4 4 4 3 2 4 4 3 4 4 3 3 3 4 4 3 3 3 3 4 3 2 3 3 2 3 4 4 4 6 6 4 4 4 4 3 1 2 3 5 5
2 2 3 3 2 7 7 0 4 8 0 4 8 3 9 5 7 8 2 9 10 13 9 12 11 10 9 9 10 10 11 8 10 11 11 11 10 10 12 10 10 10 11 9 8 7 7 5 5 5 5 5 6 6 5 5 4 4 4 4 4 2 5 3 1 2 3 3 3 2 3 5 4 4 3 3 4 3 3 2 1 1 3 4 4 3 4 5 3 3 2 3 3 3 3 4 4
5 1 3 2 1 5 7 3 7 9 3 1 11 6 1 3 6 6 2 9 11 9 9 10 12 12 10 9 8 9 9 5 8 10 10 11 10 12 11 12 11 11 10 11 9 8 7 6 6 6 6 6 6 5 5 4 4 4 4 4 5 5 5 3 4 3 3 3 1 2 1 1 2 3 4 4 4 3 2 2 2 1 1 3 1 2 3 2 4 3 2 4 3 4 3 3 3
4 3 1 1 1 3 4 8 6 3 10 6 6 5 4 2 5 5 4 12 13 9 9 12 10 9 10 9 9 11 11 12 12 11 12 11 11 12 11 13 12 11 11 11 11 11 10 8 7 6 5 5 6 6 5 5 4 4 3 4 5 7 5 5 5 5 3 2 2 3 3 3 3 2 3 3 3 3 2 2 3 1 2 2 1 1 1 1 3 2 3 3 3 3 3 2 3
1 3 2 5 1 3 5 4 3 9 8 11 6 7 5 5 6 4 4 4 5 10 10 12 10 9 7 8 11 12 12 13 13 13 14 12 11 10 11 12 11 10 9 10 10 10 9 7 7 6 5 5 5 5 4 3 4 3 3 4 6 5 5 5 6 5 3 3 2 2 4 4 3 3 3 2 3 3 4 2 1 2 4 3 1 0 0 1 2 4 4 4 3 4 4 3 3
2 3 2 2 1 3 4 7 5 13 7 8 6 10 8 5 3 2 3 2 8 3 4 8 11 12 11 11 11 11 11 14 12 12 13 11 12 12 11 10 10 10 9 9 10 9 9 8 6 6 6 6 4 3 3 3 4 3 4 3 4 4 4 5 4 4 3 3 2 2 3 4 4 4 4 3 2 3 3 2 4 3 2 2 1 2 2 2 2 3 5 4 2 3 3 4 5
2 1 2 1 1 4 5 3 5 3 4 1 5 5 5 6 5 5 5 3 1 6 9 7 10 11 11 11 12 13 14 15 12 13 13 14 14 13 10 10 10 9 9 11 10 8 9 10 9 9 8 6 6 5 4 4 3 3 2 2 3 1 5 4 4 2 3 3 3 3 3 4 4 3 3 3 3 3 2 1 2 2 3 3 0 3 4 4 2 2 1 1 3 5 5 4 5
2 1 2 4 0 2 4 2 4 3 3 1 4 1 4 5 4 5 4 0 5 6 6 6 7 10 11 14 14 14 15 7 8 7 7 7 8 8 9 10 11 12 10 11 12 11 9 8 10 9 6 7 7 6 5 4 3 6 6 6 3 2 4 4 3 2 3 3 4 4 4 4 4 4 2 2 1 2 2 2 2 2 2 2 2 0 2 1 3 3 2 3 2 4 3 1 2
2 0 0 2 3 3 4 5 6 3 5 1 0 2 3 5 5 3 4 3 4 6 8 9 10 10 10 11 13 12 8 7 8 10 8 9 9 9 10 10 11 14 13 13 11 10 9 9 8 7 7 7 7 6 5 4 2 4 5 4 6 2 1 1 2 2 2 3 3 4 3 3 3 3 2 1 1 2 2 3 3 2 3 2 1 2 1 2 2 2 4 3 5 1 5 4 2
3 2 1 3 3 2 3 4 4 6 3 1 0 2 5 6 4 5 7 7 5 5 6 7 4 10 12 11 14 14 11 10 12 12 12 11 12 11 9 10 11 9 11 9 9 12 9 9 8 7 7 6 6 6 6 4 5 5 4 7 3 3 3 2 4 2 3 3 2 1 2 3 4 3 4 3 3 2 3 3 2 3 3 3 2 1 2 3 2 2 1 4 4 3 3 4 4
1 1 1 2 2 2 4 2 2 4 2 1 2 4 6 3 5 6 7 2 2 4 7 7 5 5 6 7 4 9 12 13 14 12 11 11 11 12 15 14 10 11 11 12 12 11 9 12 10 9 8 7 6 6 6 6 7 6 6 5 4 5 5 3 3 2 1 2 2 2 3 3 3 3 2 3 3 3 2 2 4 4 4 3 4 5 3 3 3 2 1 1 2 4 4 5 6
2 3 5 5 5 4 3 1 0 2 2 2 0 3 2 4 4 6 9 4 3 3 5 11 12 5 4 6 9 8 10 15 19 17 17 16 16 13 10 10 11 11 12 12 12 12 11 10 9 7 6 5 7 8 8 8 8 9 7 7 5 4 4 3 4 5 4 4 4 1 1 2 3 3 1 2 3 3 3 3 4 5 5 6 5 4 3 5 5 4 2 2 3 4 5 4 5
1 5 4 5 5 3 2 2 3 1 3 3 1 3 5 5 5 5 6 3 7 5 4 12 10 6 6 10 11 11 10 8 10 15 14 14 13 14 14 14 14 14 14 11 10 10 10 10 9 9 7 6 7 8 8 7 7 7 8 8 7 8 7 4 2 3 5 3 2 3 3 1 1 3 1 2 2 2 4 4 4 4 4 4 3 5 5 4 3 3 3 2 3 3 2 4 4
2 4 2 1 2 3 3 3 6 5 2 2 2 3 4 4 7 6 5 4 6 8 7 9 9 7 10 9 10 9 9 11 13 14 17 19 18 18 17 17 14 15 13 10 9 9 11 11 10 9 7 7 7 8 7 8 8 6 6 5 5 6 7 6 4 4 3 3 4 4 2 1 0 1 2 1 1 3 4 4 3 3 4 3 3 4 3 3 4 3 3 3 3 1 2 3 3
4 3 5 5 2 3 2 4 4 2 0 6 6 1 1 2 7 5 1 4 6 8 9 9 11 9 10 11 10 10 11 13 16 15 17 18 18 18 16 15 15 11 10 12 13 12 10 10 10 8 8 8 7 9 8 6 8 8 7 7 5 4 5 5 4 3 4 3 4 1 1 1 0 0 1 1 1 4 3 4 3 3 3 3 3 3 3 3 3 3 5 6 5 4 3 3 3
5 4 0 1 1 2 1 1 2 2 3 5 6 1 2 6 7 6 1 1 7 9 10 11 11 11 12 12 11 10 8 7 9 16 17 17 17 17 17 15 12 13 12 12 10 8 9 9 10 10 9 8 8 9 9 7 7 7 7 6 7 5 4 3 4 5 4 4 4 2 3 1 1 1 1 3 3 3 3 3 4 3 3 2 3 4 4 5 4 4 3 2 2 3 3 3 3
1 2 3 2 6 5 2 5 3 4 1 5 6 2 2 5 7 7 3 4 4 5 7 7 5 8 12 13 12 9 8 7 9 11 14 18 18 18 15 15 15 11 9 9 9 10 9 10 11 12 11 9 9 10 10 9 7 7 8 7 8 8 6 7 5 4 4 4 4 3 3 3 1 2 1 1 3 3 4 3 3 2 3 3 4 4 4 3 4 4 4 4 4 3 4 4 4
1 0 2 1 4 7 2 3 5 1 4 7 1 3 5 1 8 5 7 6 6 8 11 11 6 9 11 9 8 10 9 8 7 10 12 14 12 10 9 12 12 11 8 8 8 9 10 11 11 12 10 10 10 11 10 10 9 8 7 8 9 10 10 8 8 8 7 7 5 5 3 1 2 2 1 1 1 2 3 3 3 4 4 4 5 4 5 5 4 4 4 5 5 4 4 4 3
5 5 6 5 3 3 2 3 3 2 5 5 0 5 2 5 11 12 8 10 11 5 6 8 9 11 12 9 10 10 10 8 7 9 10 11 13 14 13 12 10 10 12 13 13 12 11 11 13 13 13 11 12 11 11 10 9 9 9 9 8 9 9 9 9 8 7 7 7 5 4 5 3 3 3 3 2 1 3 3 3 3 3 2 3 4 4 4 4 5 5 5 4 5 5 4 5
6 4 3 4 0 0 2 3 1 4 6 6 3 2 3 5 8 6 8 9 8 7 8 8 6 9 11 11 11 11 10 10 8 9 11 13 14 13 16 16 15 15 15 16 15 13 12 12 13 14 15 13 12 11 11 10 10 10 9 9 9 9 9 9 8 8 8 7 7 7 7 7 6 6 4 5 5 3 2 3 3 3 2 3 3 3 3 2 3 3 3 4 5 5 4 4 4
7 4 7 7 6 3 3 2 3 6 8 4 2 1 3 1 4 2 5 7 7 6 10 3 2 2 5 5 1 4 5 7 9 10 12 15 16 16 15 16 16 16 18 17 14 14 13 13 13 14 12 11 12 13 10 11 10 9 8 8 8 8 9 8 8 8 8 7 6 7 6 6 7 6 6 4 4 4 4 3 3 3 3 3 3 3 4 4 3 3 3 3 3 4 5 6 4
2 3 7 6 4 6 4 6 4 3 1 3 2 3 4 4 4 8 5 7 4 3 10 12 8 11 10 3 1 2 6 9 9 10 12 14 16 16 15 15 16 16 18 16 15 13 13 14 15 15 15 14 13 13 12 12 10 8 8 8 8 8 7 7 7 6 7 8 8 8 7 6 6 6 4 4 4 4 4 4 3 3 3 3 1 0 2 3 4 5 3 3 4 3 5 6 7
2 2 2 8 3 6 1 2 0 5 4 6 2 4 6 6 7 6 9 10 9 9 9 8 8 11 12 11 12 11 9 6 2 5 9 9 7 11 14 16 15 14 14 15 16 16 18 16 14 14 13 12 13 13 13 11 10 9 9 8 7 7 8 9 9 8 8 7 7 7 7 6 5 5 5 4 5 4 4 4 3 3 3 2 1 0 1 1 1 2 3 4 4 4 4 4 5
5 1 6 2 3 3 2 4 2 0 3 6 1 3 4 3 4 6 10 9 8 9 6 8 8 12 12 9 9 10 10 9 7 6 4 4 13 16 14 14 15 16 17 17 17 16 16 16 16 16 13 14 12 12 11 11 11 11 9 9 8 9 9 8 8 8 7 7 5 5 5 6 6 5 5 4 4 4 4 4 3 2 2 1 1 1 0 0 0 1 2 3 3 3 4 3 3
3 5 3 1 1 3 5 3 0 1 2 3 2 1 3 4 5 4 5 7 6 7 8 12 12 12 11 10 11 10 9 11 12 9 5 3 4 4 10 13 15 16 17 18 18 16 13 13 14 16 18 16 15 12 12 11 12 10 10 11 10 8 7 7 6 7 7 7 7 7 7 7 5 5 6 5 5 5 4 3 3 3 3 3 2 2 2 1 0 2 2 2 3 3 4 4 4
3 1 5 2 3 3 4 6 3 5 4 1 5 1 5 4 2 3 2 2 5 5 9 9 9 9 9 9 11 10 9 6 5 4 2 5 4 3 5 6 11 12 10 10 11 11 14 14 14 14 13 12 11 12 11 12 11 10 10 8 8 9 8 8 7 7 8 8 8 7 7 6 7 5 6 6 5 5 4 4 3 3 3 3 2 1 1 1 2 3 3 3 3 2 4 4 4
7 9 5 5 2 3 2 1 2 4 3 4 3 3 4 4 6 5 5 2 4 5 6 5 6 6 5 6 8 9 9 9 8 5 7 4 1 2 0 3 6 6 3 6 10 13 14 12 12 12 13 12 12 12 11 12 11 11 11 12 10 9 9 8 7 7 8 7 7 7 7 6 5 5 5 5 5 5 4 4 4 4 4 3 3 3 3 3 3 4 3 3 3 3 3 4 4
1 1 4 3 5 7 3 8 3 1 3 3 3 8 7 6 3 6 4 3 4 4 7 5 4 5 5 6 6 6 8 7 9 12 8 8 9 3 3 3 2 0 1 2 4 5 5 7 11 11 11 11 13 12 12 12 10 11 12 12 11 8 9 8 8 8 8 7 7 6 6 5 6 5 5 5 4 4 4 4 3 3 3 3 3 4 3 1 2 3 3 2 2 3 3 4 4
Wind_Direction
354 4 337 326 6 103 54 12 73 304 64 261 288 255 260 244 246 321 181 213 25 340 16 69 91 154 105 125 112 91 29 134 192 132 204 182 135 150 143 136 144 143 139 140 136 133 133 131 131 128 133 143 149 151 153 150 147 142 140 138 132 131 129 125 128 127 128 125 119 117 114 110 108 112 114 112 113 117 119 121 121 118 118 117 116 116 116 115 115 114 111 110 111 113 113 113 114
36 0 340 333 348 84 323 143 103 344 33 344 251 140 261 211 284 270 218 175 128 137 97 93 88 92 101 117 126 87 41 22 32 117 88 107 125 131 141 141 149 141 137 133 130 133 129 129 119 115 126 142 148 152 155 154 146 142 141 139 136 135 134 127 130 131 130 127 125 122 118 114 108 103 103 103 104 108 111 116 117 115 114 113 116 116 115 114 117 116 114 112 111 113 114 114 116
22 17 346 18 44 97 266 35 227 173 123 253 285 213 272 300 212 0 103 114 130 143 118 102 98 85 99 100 39 57 226 34 84 83 98 132 131 143 141 142 140 134 131 129 133 128 125 127 118 116 123 136 147 151 153 153 149 142 139 139 141 139 138 132 129 127 128 129 126 124 124 120 112 107 104 103 98 96 102 110 115 116 116 115 114 113 112 116 120 119 116 115 111 113 115 116 115
75 84 90 34 359 14 61 27 98 135 180 215 294 267 241 248 166 123 127 132 145 155 109 63 63 305 97 70 98 83 97 89 67 117 127 156 152 144 140 137 134 124 116 123 121 117 121 124 116 118 123 126 136 144 148 148 150 146 140 144 146 145 143 135 129 131 131 130 126 124 122 124 121 113 107 107 105 99 93 94 105 114 116 117 117 116 116 115 116 122 123 118 112 113 116 116 114
43 3 130 74 107 354 90 202 172 119 217 202 196 287 330 18 133 126 121 133 142 113 97 110 79 35 82 106 135 95 134 116 118 84 107 98 126 130 132 131 126 122 121 119 117 116 123 124 116 115 117 121 128 137 142 147 148 141 145 149 148 146 144 135 131 130 134 130 125 123 122 121 120 117 115 109 109 107 96 90 91 100 105 110 109 111 112 115 122 128 124 120 117 116 117 117 112
12 62 337 93 149 206 38 340 280 226 223 184 115 272 298 281 57 114 111 89 71 86 93 58 112 121 64 27 48 105 141 136 146 97 116 123 122 124 126 125 124 123 115 114 115 117 126 122 116 115 114 115 124 132 136 141 141 140 138 137 139 142 139 136 136 134 137 130 125 125 121 123 123 120 122 117 111 110 108 103 99 99 101 103 105 111 113 107 113 123 129 125 119 119 119 115 105
348 24 21 22 332 70 161 189 254 235 266 172 206 266 272 289 265 115 106 72 53 70 93 109 112 97 78 90 62 50 84 114 120 134 127 126 118 122 125 127 126 123 117 116 116 119 129 116 109 109 111 114 120 127 134 133 137 135 128 125 134 137 141 140 136 132 136 131 126 125 126 128 127 125 122 118 114 112 114 113 108 104 100 97 97 106 108 114 122 121 112 124 124 120 113 102 99
126 85 270 92 267 65 257 227 248 161 275 164 214 231 258 261 238 139 133 120 172 110 97 118 98 85 54 6 104 19 106 82 113 119 117 122 128 128 128 131 130 125 117 114 119 131 123 106 106 108 108 112 117 119 135 135 139 133 138 134 142 144 149 143 135 132 134 130 129 130 126 124 125 125 124 120 114 112 113 112 107 106 102 101 102 110 113 120 123 125 139 131 132 121 111 103 101
17 92 302 69 314 8 333 264 248 236 273 275 268 244 242 259 230 171 129 116 97 99 126 128 108 91 146 82 70 102 88 108 111 115 120 127 131 135 135 136 138 134 126 119 102 101 112 110 104 105 107 108 112 117 127 129 136 137 137 136 140 135 144 140 135 134 134 132 133 131 128 127 125 122 121 119 113 109 109 110 108 105 105 105 112 118 119 125 130 136 140 135 139 127 117 81 76
30 115 223 159 137 284 306 293 335 247 233 248 255 278 259 266 213 138 111 118 123 124 115 120 97 113 123 97 104 87 111 114 111 109 120 124 128 130 131 135 136 137 126 111 106 111 119 116 99 97 97 103 106 112 119 125 131 134 136 131 133 151 139 146 135 133 133 132 132 131 127 127 127 125 125 124 115 107 106 107 110 108 108 110 112 113 116 122 126 124 123 130 135 127 117 100 71
332 335 174 36 14 271 259 268 250 294 284 289 273 255 258 243 240 100 130 136 141 124 132 103 88 115 109 97 83 113 112 118 121 126 129 125 124 124 124 130 129 125 123 120 116 97 97 111 107 93 95 98 102 110 119 125 124 122 126 131 134 133 134 168 137 133 132 132 132 131 131 132 130 129 126 126 118 110 110 113 116 115 112 111 110 111 114 123 124 121 132 142 127 114 108 103 83
2 326 31 134 213 181 239 210 274 281 281 276 267 253 219 238 135 125 132 132 142 134 143 120 151 123 96 118 125 130 117 121 123 127 128 126 124 126 124 120 117 117 121 119 106 103 94 92 106 111 99 94 93 103 116 121 123 126 130 136 138 135 143 146 140 139 137 136 135 135 137 136 132 130 129 126 117 119 120 121 120 117 117 115 115 115 118 123 127 131 141 137 130 124 110 109 95
181 227 114 104 234 152 253 284 267 290 294 266 247 267 236 199 163 145 143 129 142 131 160 128 140 119 126 128 142 126 121 130 127 128 129 126 125 121 117 120 123 126 128 118 113 108 104 94 91 102 111 102 95 91 105 118 125 127 135 138 141 143 144 144 145 143 140 139 138 140 142 141 139 136 134 132 126 124 122 119 121 117 118 118 118 120 123 127 133 137 144 140 141 138 120 104 94
164 184 123 254 310 248 284 266 278 298 285 262 268 250 192 124 120 127 123 130 158 138 146 134 131 110 107 110 132 140 136 138 130 127 123 118 119 119 120 122 126 130 132 131 126 124 117 114 112 104 99 97 97 104 106 113 120 127 137 144 147 151 151 149 146 144 144 142 143 146 147 146 143 138 137 136 133 127 126 125 122 122 124 123 124 129 131 132 136 138 143 143 148 149 142 112 92
208 192 114 162 289 351 249 260 256 252 269 284 273 12 62 35 110 120 132 116 35 119 123 93 134 110 181 138 176 167 151 144 133 127 118 114 111 115 119 126 130 136 141 141 144 140 137 131 127 122 114 107 100 97 104 124 125 126 137 145 148 155 154 148 148 149 148 147 149 153 151 146 142 138 138 138 133 132 132 128 127 127 130 129 129 133 138 142 142 142 143 142 146 147 151 121 99
195 130 111 164 259 230 276 269 274 270 264 300 269 102 81 36 44 88 330 121 129 110 131 147 277 145 161 160 163 152 147 133 125 118 115 111 106 107 122 131 136 137 141 143 141 137 132 132 132 126 127 128 126 124 122 126 136 132 135 147 148 147 147 151 150 155 155 151 156 155 149 144 140 141 143 139 136 138 134 133 131 128 133 134 134 135 141 146 147 144 145 145 144 139 149 202 91
116 135 272 231 288 216 261 222 27 298 295 304 320 69 105 72 68 61 55 103 120 141 65 159 13 135 155 158 135 137 135 125 120 115 111 112 116 114 111 121 120 118 133 145 142 142 140 141 145 144 151 143 137 135 129 127 136 134 136 144 144 148 150 157 160 162 158 156 149 137 121 115 118 137 136 138 140 140 141 138 134 131 133 134 134 136 142 149 151 146 148 152 145 146 153 212 224
105 211 168 270 221 249 222 248 255 307 312 291 2 71 110 100 95 115 74 57 81 87 86 72 68 64 103 113 122 128 129 127 129 126 130 131 133 134 145 153 138 156 154 156 165 154 151 157 161 157 155 150 144 136 139 137 136 129 132 132 136 141 146 158 159 152 155 130 125 118 120 113 109 111 128 124 126 140 143 140 136 134 134 134 133 137 145 152 153 150 152 151 144 143 165 223 282
139 212 121 223 220 232 172 263 289 301 286 268 232 298 108 137 128 189 96 98 91 81 81 100 89 84 87 104 120 127 133 133 135 135 141 144 148 154 161 152 143 127 143 156 172 170 166 158 157 161 161 159 148 145 148 159 142 131 135 127 142 150 166 149 151 148 139 141 136 136 122 119 114 115 125 130 127 147 150 145 138 137 136 138 136 140 146 149 153 151 147 143 146 153 158 209 287
240 167 244 241 217 282 354 261 281 270 260 286 42 347 118 195 114 152 117 135 115 117 113 103 116 124 126 132 135 138 137 138 137 139 146 152 151 153 148 146 151 163 164 165 172 163 151 157 164 166 168 164 159 163 153 151 139 136 143 137 138 145 142 146 152 138 138 170 134 110 125 135 131 142 150 150 139 137 148 140 144 142 142 139 141 146 156 157 159 157 152 149 152 159 183 166 255
272 123 205 238 196 313 269 287 259 276 25 330 5 7 102 168 120 114 135 99 120 146 147 142 143 143 146 151 147 142 134 132 139 142 144 147 146 142 145 153 153 161 159 137 138 154 156 146 141 152 157 150 152 160 148 155 148 141 148 148 148 145 141 141 132 123 140 131 123 112 132 130 123 114 109 109 113 130 135 137 147 142 137 137 133 142 153 157 147 142 149 151 151 163 187 213 198
334 218 220 218 249 278 253 256 280 280 38 28 8 35 261 337 83 133 140 139 182 173 169 145 148 147 150 154 153 137 131 136 145 143 147 147 147 141 138 131 115 120 122 103 120 98 119 135 128 126 128 139 147 153 147 162 148 143 143 149 123 123 119 96 85 111 123 137 153 147 134 121 118 116 119 129 131 133 130 141 139 134 139 145 144 152 158 148 148 151 149 150 179 191 195 228 212
248 283 278 242 230 227 265 239 247 268 45 53 3 323 320 47 70 166 125 157 185 176 167 150 152 158 155 147 146 140 142 148 155 153 149 144 140 141 145 146 133 115 101 111 111 108 101 97 107 122 131 123 115 117 107 105 112 123 128 134 125 118 113 112 105 120 142 146 142 138 134 142 139 136 143 148 148 149 146 154 143 136 143 154 158 156 172 166 163 153 157 168 170 208 234 234 231
201 247 253 257 218 233 252 274 279 76 98 60 250 31 44 337 88 290 82 283 188 154 148 150 142 131 139 145 148 144 147 155 159 154 152 151 148 153 150 139 122 118 101 111 105 111 109 104 97 87 109 123 122 114 113 110 113 117 130 125 111 130 113 105 112 128 128 135 142 136 135 142 141 144 147 164 164 161 158 154 147 146 148 160 164 168 175 175 175 164 163 166 178 199 221 246 251
218 248 242 250 236 229 212 225 191 39 102 98 52 33 314 21 123 42 358 119 117 119 121 124 123 128 135 142 134 134 136 138 138 143 130 132 137 132 125 118 117 104 105 106 112 96 88 102 91 88 103 124 126 122 118 119 112 99 100 112 119 123 110 114 122 123 113 102 92 120 141 138 136 143 150 161 155 177 166 158 148 142 148 167 163 184 187 185 189 171 168 177 186 203 212 223 237
225 228 232 251 217 198 190 175 144 204 114 74 42 341 315 325 68 58 297 145 120 124 129 130 131 138 148 152 137 141 144 147 143 139 140 136 134 122 130 125 117 103 125 121 98 97 87 74 68 70 95 124 125 115 122 118 129 120 119 126 133 118 118 123 119 109 104 117 117 122 113 113 130 149 154 153 167 174 172 159 147 153 144 140 167 186 199 198 196 177 178 177 186 201 214 221 209
220 230 228 224 232 171 245 142 247 179 141 109 125 313 306 327 90 67 91 144 123 127 135 144 145 156 163 160 150 151 148 156 152 140 122 132 134 128 140 122 112 129 112 100 103 106 99 81 66 66 78 96 108 117 121 126 132 129 139 140 117 128 127 118 115 113 107 111 132 128 116 121 124 153 153 160 172 175 169 165 163 160 162 165 141 163 157 198 204 181 167 173 202 202 213 212 206
284 245 206 150 272 109 178 120 164 101 322 113 120 240 298 318 90 153 186 158 134 133 144 154 161 165 166 167 150 158 151 152 143 142 144 146 149 143 143 133 130 120 106 111 115 118 88 88 78 70 79 88 100 111 122 133 135 138 134 130 143 150 145 145 131 134 145 156 158 149 135 144 138 130 153 165 168 173 170 174 173 174 191 179 160 136 160 168 188 174 135 154 166 200 216 221 211
293 137 216 303 10 46 191 161 191 127 279 130 115 38 341 343 175 171 176 163 148 150 162 167 170 167 167 160 134 155 156 155 152 148 153 149 147 145 140 145 131 112 116 124 126 102 103 98 91 81 87 90 100 108 127 141 136 128 130 136 145 146 148 146 137 135 146 167 167 186 159 148 145 162 173 172 163 167 168 176 183 192 194 182 173 169 144 183 210 186 118 102 132 183 267 214 213
326 356 140 359 15 351 262 314 166 117 219 129 95 291 270 265 249 232 159 189 158 150 160 171 168 165 162 150 148 151 150 151 161 156 153 150 150 150 138 154 128 125 129 125 110 110 116 100 106 95 87 94 99 108 116 119 124 127 127 129 129 134 148 150 152 146 154 163 166 179 175 155 146 170 169 168 155 145 150 175 185 185 185 191 178 176 179 183 223 218 161 283 305 315 274 277 195
317 273 41 352 8 269 278 169 221 166 188 137 111 185 270 265 277 284 169 165 163 163 172 170 166 171 163 157 156 164 172 166 161 157 153 150 148 145 135 140 129 128 123 125 127 138 117 120 112 98 105 97 93 103 115 121 135 126 119 99 98 170 130 150 156 148 143 155 169 176 161 168 171 181 163 135 121 135 165 172 186 185 173 188 190 190 184 189 189 227 200 183 202 253 265 265 207
338 27 301 328 153 279 282 326 165 192 306 173 114 194 241 250 274 275 227 174 168 175 183 172 169 170 168 169 165 162 164 165 157 155 154 152 148 147 142 147 141 137 137 138 133 131 126 126 115 117 108 105 107 115 122 127 126 124 115 101 85 76 95 99 108 125 127 123 147 163 167 168 176 183 155 128 137 168 177 133 53 105 172 179 197 204 189 183 169 209 210 192 197 248 261 270 210
347 100 252 283 238 267 351 285 204 206 105 267 163 214 325 294 252 276 270 182 178 162 183 180 171 171 169 167 161 158 150 156 157 158 160 152 157 151 150 150 153 148 141 140 140 135 131 135 125 126 130 127 125 118 117 119 115 112 103 99 100 83 75 69 99 117 97 93 93 86 90 117 152 169 155 148 146 177 152 128 132 82 32 159 183 211 209 181 171 161 236 232 213 242 251 295 279
318 8 248 219 244 310 290 295 290 206 151 206 203 162 217 215 233 261 274 190 171 172 166 184 173 171 175 166 161 164 168 166 167 167 171 165 164 160 155 155 155 149 147 146 147 143 147 146 143 145 151 145 141 140 142 138 131 103 82 97 87 83 87 92 100 107 96 100 73 73 78 81 101 143 125 147 156 166 131 177 205 194 84 32 146 135 259 143 131 187 218 240 234 239 256 249 282
259 319 2 321 314 191 233 297 266 152 185 171 200 208 213 257 291 303 181 132 158 170 147 176 173 175 172 172 173 173 172 173 176 173 171 169 159 161 158 156 151 148 148 148 147 147 141 146 147 153 151 156 153 151 123 84 73 59 51 59 78 86 78 76 95 95 103 83 77 97 86 81 83 74 78 91 135 135 131 173 262 196 129 218 130 22 239 233 161 173 206 225 217 227 236 253 270
208 183 186 196 2 315 315 254 268 171 175 169 169 198 223 254 297 296 306 84 133 175 194 154 183 182 179 179 179 177 178 183 179 175 172 165 164 165 163 155 149 149 149 151 149 149 147 150 155 156 160 166 150 118 98 95 88 88 99 53 61 72 95 92 74 105 96 88 85 70 77 85 81 83 83 83 95 116 136 155 195 160 105 178 227 174 229 198 170 188 226 218 245 290 246 242 270
208 101 111 237 13 285 268 322 346 343 103 148 193 205 208 233 234 264 261 291 311 193 196 180 188 186 184 184 182 184 182 188 181 173 172 171 173 168 153 146 148 150 154 154 151 160 160 160 157 169 178 158 150 148 137 140 121 82 68 132 141 179 119 111 105 123 118 127 102 81 63 66 72 70 77 85 72 85 75 76 1 13 121 117 178 250 235 228 254 250 256 190 179 252 265 227 251
126 100 6 317 350 318 291 296 333 349 139 348 21 343 302 277 293 273 285 155 236 242 223 216 187 195 190 185 187 186 193 179 152 164 176 163 159 154 149 151 152 156 171 160 161 167 169 162 167 175 168 162 163 167 167 156 166 166 161 182 164 171 111 110 119 132 134 117 103 97 95 80 66 53 31 29 83 94 87 59 15 5 23 86 149 212 297 286 180 225 280 278 198 213 251 230 211
64 116 188 329 296 244 292 335 344 352 82 277 78 55 278 278 268 265 281 231 240 213 208 210 185 190 199 196 190 185 172 170 166 169 163 169 166 160 158 163 172 165 165 168 168 160 166 170 180 169 174 170 169 165 150 163 158 152 149 172 152 138 322 151 144 174 138 106 94 128 118 105 103 83 43 36 10 6 38 65 63 36 47 55 26 358 4 293 268 197 209 239 291 332 292 297 251
116 62 51 256 234 67 305 302 344 344 81 272 325 341 286 293 278 261 208 207 254 245 221 245 213 189 191 196 190 185 176 156 166 168 173 171 173 167 165 171 172 166 165 168 165 168 169 176 179 169 178 178 165 165 165 163 145 159 130 136 131 120 162 99 62 51 79 81 86 96 103 99 83 76 84 72 63 51 43 50 45 70 62 73 104 345 323 304 295 297 234 216 198 274 221 284 270
313 150 185 231 306 236 154 247 324 337 336 101 75 21 332 301 278 306 292 189 207 278 275 271 250 240 230 199 183 179 168 169 170 173 170 166 171 178 180 180 165 169 175 174 174 173 176 179 180 174 175 177 172 157 144 139 118 102 99 80 88 71 50 52 68 38 58 129 116 102 140 122 111 103 93 112 104 94 85 71 49 30 35 38 60 47 22 311 296 266 181 204 188 223 249 224 224
316 249 193 223 239 245 260 311 60 24 331 315 134 0 296 286 278 240 256 322 294 271 212 242 244 213 191 191 196 202 187 175 171 172 173 177 181 181 180 169 175 179 180 184 177 178 172 175 173 170 170 169 159 155 154 145 140 136 133 126 122 121 129 134 155 163 159 156 181 220 219 142 133 124 104 71 69 69 51 55 49 42 34 31 37 47 42 34 17 356 303 221 225 221 246 269 285
110 273 191 216 228 222 197 140 82 129 196 277 80 186 266 314 275 255 275 312 285 288 216 242 239 203 197 201 200 197 176 185 181 168 168 172 180 181 184 182 183 181 189 178 177 177 174 172 174 169 168 171 160 157 158 140 137 145 153 159 159 163 164 210 215 186 154 185 141 148 185 196 117 112 135 106 92 96 90 62 69 64 62 55 44 45 39 31 5 17 11 14 272 267 237 267 283
239 241 165 236 259 250 243 158 183 225 255 313 18 126 216 298 282 250 258 266 272 286 269 253 245 205 201 208 203 200 180 170 168 173 176 180 181 182 186 190 185 188 180 171 174 175 176 177 173 170 168 169 168 157 158 153 146 151 146 147 155 157 170 181 183 176 173 148 137 154 147 234 251 170 117 69 106 102 97 81 78 70 63 45 53 56 40 6 11 15 33 33 8 321 234 258 270
217 251 199 245 223 216 221 102 132 194 71 279 322 337 351 266 264 293 257 287 288 273 263 246 237 213 207 205 203 200 189 174 171 175 182 183 185 190 187 186 191 178 168 176 182 182 177 174 170 166 169 170 169 159 155 159 150 159 156 153 151 173 168 169 162 149 147 136 125 125 137 197 313 17 164 128 89 100 96 102 88 74 60 36 43 29 25 34 34 22 16 15 12 1 331 283 292
278 209 155 101 95 96 137 108 78 355 57 292 276 272 242 276 276 315 337 235 270 267 268 256 228 212 207 212 207 203 200 170 170 178 180 186 188 189 189 184 176 183 184 182 178 167 171 169 171 171 174 176 168 163 156 162 157 149 152 165 162 171 169 148 139 154 153 141 144 184 166 178 213 105 110 107 93 108 104 92 83 74 60 39 37 18 9 14 12 15 23 19 15 7 338 335 294
212 97 197 344 22 5 6 71 94 60 8 265 245 254 154 290 265 231 213 227 225 265 275 258 248 221 217 213 204 205 205 188 164 177 185 187 190 188 182 181 185 179 180 175 170 173 171 174 176 178 180 173 170 164 160 167 165 161 165 172 171 169 172 156 153 164 147 137 159 195 184 204 221 206 196 115 122 108 99 97 96 72 41 34 35 37 33 21 8 3 354 4 14 8 347 344 343
120 269 143 39 325 0 27 344 47 100 274 262 332 188 116 195 291 282 242 286 278 254 271 277 205 211 223 216 213 213 213 208 170 157 182 190 187 185 176 181 182 181 168 176 180 174 176 180 179 179 179 179 174 168 167 170 169 173 168 169 172 172 166 167 171 172 173 170 175 185 197 152 219 240 215 132 141 84 104 80 69 57 52 40 26 19 14 11 11 15 12 9 358 354 352 350 338
82 64 48 131 256 36 337 7 324 208 217 247 163 124 36 239 237 262 294 291 293 268 223 231 194 208 205 211 213 214 213 211 179 165 158 172 178 177 183 183 176 175 183 185 185 182 182 182 182 178 185 184 177 171 173 173 173 176 173 175 174 170 169 172 175 173 176 172 176 176 170 187 185 189 214 193 229 160 121 99 84 84 67 61 52 29 12 15 18 11 3 359 2 360 350 346 344
108 161 137 89 129 59 252 270 215 308 292 269 257 201 230 245 287 241 233 255 257 291 260 236 227 200 202 202 202 207 208 202 189 165 165 171 178 178 179 179 182 186 188 188 186 184 185 185 186 185 188 186 176 173 175 174 182 181 177 176 174 169 174 175 178 173 179 178 173 176 176 176 180 187 190 197 194 179 138 142 121 107 104 70 46 40 35 29 21 11 1 356 344 332 343 353 343
193 152 153 179 141 159 233 197 222 223 221 277 283 77 240 107 242 238 215 247 283 298 302 303 197 253 253 247 188 161 182 195 180 173 175 175 179 178 178 183 185 187 191 190 186 187 184 187 188 192 186 187 179 177 174 179 183 183 182 181 173 173 172 177 181 178 174 174 182 173 181 176 177 194 183 194 167 161 155 135 131 106 77 59 48 18 352 346 356 5 352 347 339 334 336 340 342
278 153 86 75 236 139 196 202 170 227 275 343 329 206 192 210 259 298 325 333 26 341 3 0 9 16 12 18 48 189 192 183 182 181 183 180 180 181 180 184 188 190 191 190 187 183 187 190 190 191 186 185 185 178 180 180 181 180 177 178 181 173 173 172 174 179 178 174 175 173 181 180 185 172 187 161 182 158 156 145 130 134 121 112 133 152 307 318 332 346 349 0 345 339 343 341 333
268 96 173 213 167 129 126 6 184 105 44 256 198 328 309 303 328 323 357 24 19 25 5 20 23 44 45 50 52 35 5 343 311 194 171 185 184 183 184 186 191 191 188 190 189 188 189 188 189 191 190 186 185 184 181 178 174 172 183 179 171 172 170 171 176 178 179 183 172 175 172 180 166 155 162 162 162 165 148 142 131 134 151 145 125 345 318 338 357 360 344 344 342 334 344 339 336
88 204 245 275 90 113 144 225 322 158 200 260 28 209 294 32 287 326 12 27 21 45 22 31 39 61 55 37 41 40 34 33 19 345 320 217 186 185 191 194 190 187 190 193 193 191 190 187 186 186 187 186 191 185 181 176 174 179 177 180 180 177 177 176 169 170 171 163 174 166 161 151 165 163 148 155 142 144 148 144 146 165 144 127 128 113 104 352 57 357 332 321 307 328 335 338 337
68 295 210 159 328 298 317 76 269 271 281 267 306 259 263 183 258 359 24 9 357 11 19 38 29 34 48 36 37 29 33 36 27 352 326 320 294 249 193 194 199 195 193 192 193 189 186 189 188 185 188 188 183 185 184 183 179 179 180 181 178 178 176 172 172 162 161 162 165 164 162 165 149 146 138 140 145 149 151 155 145 152 147 140 140 163 172 171 226 306 307 303 311 330 333 325 322
136 101 20 288 113 180 169 205 186 131 243 90 284 34 243 228 196 176 85 347 9 26 40 48 49 35 29 20 26 36 33 37 44 25 329 292 303 286 279 237 203 198 200 204 193 187 190 189 187 194 192 184 179 184 182 182 187 180 181 172 176 175 173 172 170 161 166 169 168 162 157 147 161 151 148 149 149 152 153 151 159 152 160 166 171 183 181 220 228 249 254 272 275 288 305 309 308
346 5 337 356 349 223 140 320 136 171 176 181 188 294 278 248 213 156 138 131 73 64 66 61 60 46 40 33 35 29 25 19 26 25 1 9 235 233 351 360 330 316 268 208 190 191 194 189 190 189 184 185 185 187 183 189 182 187 173 176 177 173 175 170 166 167 165 171 168 164 161 159 142 153 148 147 151 157 161 159 157 167 170 183 189 217 231 230 234 252 255 250 258 250 268 281 294
208 186 251 255 319 331 6 280 354 77 106 220 144 246 258 269 218 152 148 159 99 76 79 60 48 47 31 26 27 30 18 14 22 12 7 359 352 314 201 164 149 109 41 326 266 229 195 192 194 189 187 185 186 187 192 189 188 183 181 180 175 172 167 164 163 166 166 168 168 163 158 143 154 171 152 155 154 156 152 160 165 188 196 197 206 221 255 320 312 308 296 284 265 262 264 271 280